Regional Weather Roundup
Issued by NWS

Home | Current Version | Previous Version | Graphics & Text | Print | Product List | Glossary On
Versions: 1 2 3 4 5 6 7 8 9 10 11 12 13 14 15 16 17 18 19 20 21 22 23 24 25 26 27 28 29 30 31 32 33 34 35 36 37 38 39 40 41 42 43 44 45 46 47 48 49 50
000
ASUS44 KMEG 010000
RWRTN
TENNESSEE HOURLY STATE WEATHER ROUNDUP
NATIONAL WEATHER SERVICE MEMPHIS TN
700 PM CDT MON AUG 31 2015

TNZ002-004-019-021-049-052-054-088>092-010100-
WEST TENNESSEE

CITY           SKY/WX    TMP DP  RH WIND       PRES   REMARKS
MEMPHIS INTL   PTCLDY    87  67  51 SE7       30.03S HX  90
NWS MEMPHIS      N/A     85 N/A N/A MISG        N/A
JACKSON        CLEAR     80  70  71 CALM      30.06S
DYERSBURG      CLEAR     84  70  61 CALM      30.05F
UNION CITY     PTCLDY    82  70  65 CALM      30.04S
PARIS          CLEAR     81  66  61 CALM      30.07F
LEXINGTON      CLEAR     81  70  69 CALM      30.06S
$$

TNZ008-025-027-028-033-062-065-066-010100-
NORTH MIDDLE TENNESSEE

CITY           SKY/WX    TMP DP  RH WIND       PRES   REMARKS
NASHVILLE      PTCLDY    83  60  45 E5        30.07F
CLARKSVILLE    MOCLDY    83  64  52 SW3       30.06S
COOKEVILLE     MOCLDY    79  72  78 CALM      30.10S
CROSSVILLE     CLEAR     73  66  78 CALM      30.14F
$$

TNZ061-075-076-078-094-096-097-010100-
SOUTH MIDDLE TENNESSEE

CITY           SKY/WX    TMP DP  RH WIND       PRES   REMARKS
FAYETTEVILLE   CLEAR     75  68  78 CALM      30.09S
TULLAHOMA      CLEAR     79  66  65 CALM      30.10F
WINCHESTER     MOCLDY    79  70  73 CALM      30.09F
COLUMBIA       CLEAR     81  70  69 CALM      30.06S
SHELBYVILLE    CLEAR     81  72  74 CALM      30.09F
$$

TNZ017-018-042-046-047-010100-
NORTHEAST TENNESSEE

CITY           SKY/WX    TMP DP  RH WIND       PRES   REMARKS
TRI CITIES     CLEAR     77  65  66 CALM      30.11R
ELIZABETHTON   CLEAR     72  64  78 CALM      30.12R
$$

TNZ012-013-036-069-073-074-010100-
CENTRAL EAST TENNESSEE

CITY           SKY/WX    TMP DP  RH WIND       PRES   REMARKS
KNOXVILLE      PTCLDY    82  62  50 NE5       30.07S
OAK RIDGE      CLEAR     80  66  62 CALM      30.09S
GATLINBURG     CLEAR     81  61  50 CALM      30.08R
$$

TNZ083-085-099-010100-
SOUTHEAST TENNESSEE

CITY           SKY/WX    TMP DP  RH WIND       PRES   REMARKS
CHATTANOOGA    PTCLDY    81  66  60 NW5       30.07F
$$

SKY/WX REPORTED AS FAIR MEANS FEW OR NO CLOUDS BELOW
12 THOUSAND FEET.



USA.gov is the U.S. government's official web portal to all federal, state and local government web resources and services.